This is the latest recevied weather packets stored in our database for station/object KB1FPD. If no packets are shown the sender has not sent any weather packets the latest 10 day(s).
| Time | Temp. | Humidity | Pressure | Rain* | Wind** | Luminosity | Snow |
|---|---|---|---|---|---|---|---|
| 1777679923 | 12.78° C | 73% | 1011.2 hPa | 0 mm | - | - | - |
| 1777679618 | 12.78° C | 70% | 1011 hPa | 0 mm | - | - | - |
| 1777679322 | 12.78° C | 68% | 1010.8 hPa | 0 mm | - | - | - |
| 1777679022 | 13.33° C | 66% | 1010.7 hPa | 0 mm | - | - | - |
| 1777678710 | 13.33° C | 64% | 1010.7 hPa | 0 mm | - | - | - |
| 1777678405 | 13.33° C | 64% | 1010.5 hPa | 0 mm | - | - | - |
| 1777678110 | 13.33° C | 62% | 1010.4 hPa | 0 mm | - | - | - |
| 1777677807 | 13.33° C | 61% | 1010.3 hPa | 0 mm | - | - | - |
| 1777677502 | 13.33° C | 62% | 1010.3 hPa | 0 mm | - | - | - |
| 1777677198 | 13.89° C | 62% | 1010.3 hPa | 0 mm | - | - | - |
| 1777676902 | 13.89° C | 64% | 1010.3 hPa | 0 mm | - | - | - |
| 1777676601 | 13.89° C | 63% | 1010.5 hPa | 0 mm | - | - | - |
| 1777676301 | 13.89° C | 61% | 1010.4 hPa | 0 mm | - | - | - |
| 1777675995 | 13.89° C | 61% | 1010.1 hPa | 0 mm | - | - | - |
| 1777675700 | 13.89° C | 63% | 1010.3 hPa | 0 mm | - | - | - |
| 1777675399 | 13.89° C | 61% | 1010.5 hPa | 0 mm | - | - | - |
| 1777675091 | 14.44° C | 58% | 1010.5 hPa | 0 mm | - | - | - |
| 1777674791 | 14.44° C | 61% | 1010.6 hPa | 0 mm | - | - | - |
| 1777674491 | 14.44° C | 56% | 1010.6 hPa | 0 mm | - | - | - |
| 1777674200 | 14.44° C | 61% | 1010.6 hPa | 0 mm | - | - | - |
| 1777673900 | 14.44° C | 58% | 1010.5 hPa | 0 mm | - | - | - |
| 1777673592 | 14.44° C | 57% | 1010.5 hPa | 0 mm | - | - | - |
| 1777673295 | 15° C | 59% | 1010.5 hPa | 0 mm | - | - | - |
| 1777672992 | 15° C | 53% | 1010.5 hPa | 0 mm | - | - | - |
| 1777672692 | 15.56° C | 54% | 1010.5 hPa | 0 mm | - | - | - |
* Rain latest hour (hover to see other rain measurements)
** Current wind speed in m/s (hover to see current wind gust speed)